Miscellaneous Local Product
Issued by NWS North Platte, NE

Home | Current Version | Previous Version | Graphics & Text | Print | Product List | Glossary On
Versions: 1 2 3 4 5 6 7 8 9 10 11 12 13 14 15 16 17 18 19 20 21 22 23 24 25 26 27 28 29 30 31 32 33 34 35 36 37 38 39 40 41 42 43 44 45 46 47 48 49 50
000
AXUS43 KLBF 301510
MISLBF


WESTERN AND NORTH CENTRAL NEBRASKA HOURLY WEATHER ROUNDUP
NATIONAL WEATHER SERVICE NORTH PLATTE NE
900 AM CST FRI JAN 30 2015

***STATIONS NOT REPORTING VARIABLES SUCH AS SKY/WEATHER OR
PRESSURE ARE PROVIDED BY THE NEBRASKA DEPARTMENT OF
ROADS...RAWS...AND APRS NETWORKS...AND ARE NOT UNDER
NATIONAL WEATHER SERVICE QUALITY CONTROL***

...OBSERVATIONS IN AND NEAR THE EASTERN PANHANDLE OF NEBRASKA...

CITY           SKY/WX    TMP DP  RH WIND       PRES   REMARKS
PINE RIDGE     CLOUDY    33  20  58 S3        30.21S
CHADRON        CLOUDY    32  21  64 SW8       30.21S WCI  25
ALLIANCE       CLOUDY    27  21  78 S5        30.21F WCI  22
SIDNEY         MOCLDY    30  23  75 S8        30.21F WCI  22
WHITECLAY        N/A     30  18  59 SE5         N/A  WCI  25
CRESCENT LAKE    N/A     28  22  76 S7          N/A  WCI  21
LISCO            N/A     32  20  60 E7          N/A  WCI  26
LEWELLEN         N/A     30  23  74 E3          N/A
$$

...OBSERVATIONS IN NORTH CENTRAL NEBRASKA...

CITY           SKY/WX    TMP DP  RH WIND       PRES   REMARKS
VALENTINE      MOCLDY    26  20  77 S5        30.27F WCI  20
THEDFORD       CLOUDY    33  24  71 S10       30.29F WCI  25
AINSWORTH      MOCLDY    27  22  80 S12       30.29F WCI  17
O`NEILL        MOSUNNY   25  23  93 S12       30.38F WCI  14
ORD            PTSUNNY   22  19  89 SE7       30.40F WCI  13
BROKEN BOW     CLOUDY    25  21  85 E5        30.36F WCI  19
BROWNLEE         N/A     28  22  81 S6          N/A  WCI  21
VALENTINE NWR    N/A     22  17  82 S8          N/A  WCI  13
SPRINGVIEW       N/A     25  22  86 CALM        N/A
HALSEY           N/A     27  20  75 S6          N/A  WCI  21
BREWSTER         N/A     27  25  90 CALM        N/A
ROSE             N/A     29  29  99 E10         N/A  WCI  19
NEWPORT          N/A     30  28  92 S7          N/A  WCI  23
SARGENT          N/A     23  21  91 CALM        N/A
COMSTOCK         N/A     29  26  90 S10         N/A  WCI  19
CHAMBERS         N/A     24  20  86 S7          N/A  WCI  16
EWING            N/A     24  22  93 S5          N/A  WCI  18
$$

...OBSERVATIONS IN SOUTHWEST NEBRASKA AND FAR NORTHEAST COLORADO...

CITY           SKY/WX    TMP DP  RH WIND       PRES   REMARKS
WRAY           FAIR      33  27  77 SE3       30.26F
IMPERIAL       CLOUDY    29  22  75 SE9       30.29F WCI  20
OGALLALA       MOCLDY    29  24  79 E3        30.28F
NORTH PLATTE   MOCLDY    27  22  81 E7        30.33F WCI  19
MCCOOK         CLOUDY    27  21  78 CALM      30.36F
LEXINGTON      PTSUNNY   26  22  84 SE5       30.39S WCI  21
BRADY            N/A     24  19  82 CALM        N/A
GOTHENBURG       N/A     24  19  82 CALM        N/A
CALLAWAY         N/A     28  24  84 S9          N/A  WCI  19
$$

...NORTH PLATTE AREA...

CITY           SKY/WX    TMP DP  RH WIND       PRES   REMARKS
AIRPORT        MOCLDY    27  22  81 E7        30.33F WCI  19
DOWNTOWN         N/A     32  24  71 S5G13       N/A  WCI  27
$$

...SOME WEATHER OBSERVATIONS FROM AROUND THE REGION...

CITY           SKY/WX    TMP DP  RH WIND       PRES   REMARKS
DENVER         CLOUDY    32  25  75 SW6       30.19F WCI  26
LARAMIE        MOCLDY    26  22  84 CALM      30.20S
CHEYENNE       MOCLDY    31  23  72 W7        30.18S WCI  24
SCOTTSBLUFF    CLOUDY    29  24  82 CALM      30.21F
RAPID CITY     MOCLDY    23  18  81 NW3       30.17S
PIERRE         CLEAR     23  20  88 SE9       30.24F WCI  13
WINNER         FAIR      33  21  61 S17G24    30.25F WCI  22
SIOUX FALLS    MOSUNNY   21  18  88 S10       30.45F WCI  10
OMAHA          MOSUNNY   22  17  81 S8        30.55R WCI  12
GRAND ISLAND   PTSUNNY   24  20  84 S14       30.46F WCI  12
KANSAS CITY    PTSUNNY   25  21  85 NE7       30.54R WCI  17
WICHITA        CLOUDY    30  25  81 CALM      30.53F
HAYS           CLOUDY    25  14  63 S5        30.45F WCI  19
LIBERAL        CLOUDY    37  25  60 S9        30.44F WCI  31
GOODLAND       CLOUDY    33  25  72 S17       30.30F WCI  22
$$



USA.gov is the U.S. government's official web portal to all federal, state and local government web resources and services.